Location: Bishop's University Astronomical Observatory
(45.3661°N, 71.8475°W)
Time: 04:57:40
(UTC-05:00)

CZ-4C R/B - Visible Passes

Search period start: 11 December 2016 00:00
Search period end: 21 December 2016 00:00
Orbit: 729 x 1273 km, 63.4° (Epoch: 09 December)

Date Brightness Start Highest point End Pass type
(mag) Time Alt. Az. Time Alt. Az. Time Alt. Az.
11 Dec 4.8 03:19:38 14° NNE 03:19:38 14° NNE 03:21:40 10° NE visible
11 Dec 4.4 05:04:49 14° NNW 05:08:54 23° NNE 05:14:35 10° ENE visible
12 Dec 4.6 03:52:14 17° N 03:52:34 17° N 03:56:55 10° NE visible
12 Dec 4.0 05:37:25 11° NNW 05:43:16 34° NE 05:50:03 10° E visible
13 Dec 5.2 02:39:39 11° NNE 02:39:39 11° NNE 02:39:57 10° NNE visible
13 Dec 4.4 04:24:50 18° N 04:27:15 21° NNE 04:32:38 10° ENE visible
13 Dec 3.4 06:10:31 10° NNW 06:17:19 55° NE 06:24:53 10° ESE visible
14 Dec 4.8 03:12:16 15° NNE 03:12:16 15° NNE 03:15:01 10° NE visible
14 Dec 4.1 04:57:27 17° NNW 05:01:41 31° NNE 05:08:12 10° E visible
14 Dec 3.0 06:44:00 10° NW 06:51:05 88° SW 06:58:57 10° SE visible
15 Dec 4.5 03:44:55 20° NNE 03:45:35 20° NNE 03:50:40 10° ENE visible
15 Dec 3.6 05:30:07 15° NNW 05:35:49 48° NE 05:43:13 10° ESE visible
16 Dec 5.2 02:32:24 12° NE 02:32:24 12° NE 02:33:08 10° NE visible
16 Dec 4.2 04:17:36 23° N 04:20:05 28° NNE 04:26:19 10° E visible
16 Dec 3.0 06:02:48 11° NW 06:09:40 81° NE 06:17:30 10° SE visible
17 Dec 4.8 03:05:07 18° NNE 03:05:07 18° NNE 03:08:42 10° ENE visible
17 Dec 3.7 04:50:19 23° NNW 04:54:18 43° NE 05:01:31 10° ESE visible
17 Dec 3.1 06:36:15 10° NW 06:43:13 59° WSW 06:50:53 10° SSE visible
18 Dec 4.3 03:37:52 25° NNE 03:38:28 25° NNE 03:44:25 10° E visible
18 Dec 3.1 05:23:05 20° NNW 05:28:13 71° NE 05:35:59 10° SE visible
19 Dec 5.2 02:25:28 13° NE 02:25:28 13° NE 02:26:45 10° NE visible
19 Dec 3.8 04:10:40 32° N 04:12:45 38° NE 04:19:45 10° ESE visible
19 Dec 2.9 05:55:53 16° NW 06:01:51 68° WSW 06:09:37 10° SSE visible
20 Dec 4.7 02:58:20 22° NE 02:58:20 22° NE 03:02:29 10° ENE visible
20 Dec 3.2 04:43:32 34° NNW 04:46:45 62° NE 04:54:26 10° SE visible
20 Dec 3.6 06:28:45 10° NW 06:35:13 37° WSW 06:42:13 10° S visible
